[[{"header":{"parameterUnit":"m.s-1","parameterCategory":1,"la1":30.2991,"la2":30.254,"lo1":-89.0895,"lo2":-89.0444,"dy":0.0017,"dx":0.0017,"nx":28,"ny":28,"refTime":"2023-09-05T03:00:00:Z","depth":0,"parameterNumber":2,"parameterNumberName":"U-component_of_WINDS"},"data":[0,0,0,0,0,0,0,0,0,0,0,0,0,0,0,0,0,0,0,0,0,0,0,0,0,0,0,0,0,0,0,0,0,0,0,0,0,0,0,0,0,0,0,0,0,0,0,0,0,0,0,0,0,0,0,0,0,0,-4.2689,-4.269,0,-4.2754,-4.2755,-4.2755,-4.2722,-4.2721,-4.2719,-4.2717,-4.2781,-4.2784,-4.2787,0,0,0,0,0,0,0,0,0,0,0,0,0,-4.2534,-4.2537,-4.2689,-4.269,-4.2691,-4.2754,-4.2755,-4.2756,-4.2723,-4.2721,-4.2719,-4.2717,-4.278,-4.2784,-4.2788,0,0,0,0,0,0,0,0,0,0,0,0,0,-4.26,-4.2538,-4.2689,-4.2682,-4.2682,-4.2754,-4.2755,-4.2756,-4.2723,-4.2721,-4.2718,-4.2716,-4.2779,-4.2783,-4.2788,-4.287,0,0,-4.2803,-4.2805,0,0,0,0,0,0,0,0,-4.2597,-4.2606,-4.2682,-4.2683,-4.2683,-4.2728,-4.2723,-4.2794,-4.2724,-4.2707,-4.2717,-4.2714,-4.2765,-4.2771,-4.2789,-4.2873,-4.2875,-4.2804,-4.2807,-4.2809,-4.281,0,0,0,0,0,0,0,-4.2592,-4.2603,-4.2715,-4.2683,-4.2684,-4.2675,-4.2681,-4.2737,-4.275,-4.2709,-4.2706,-4.2715,-4.2765,-4.2784,-4.279,-4.2876,-4.2804,-4.2808,-4.2811,-4.2813,-4.3029,-4.3032,0,0,0,0,0,0,-4.2588,-4.26,-4.2712,-4.2717,-4.2633,-4.268,-4.2687,-4.2716,-4.2749,-4.2752,-4.2717,-4.2713,-4.2777,-4.2784,-4.2792,-4.2888,-4.2809,-4.2813,-4.2816,-4.3027,-4.303,-4.3033,0,0,0,0,0,0,-4.2585,-4.2599,-4.271,-4.2658,-4.2671,-4.2685,-4.2717,-4.2718,-4.2737,-4.2755,-4.2757,-4.2734,-4.2775,-4.2785,-4.2851,-4.289,-4.2816,-4.282,-4.3023,-4.3028,-4.3032,-4.3082,0,0,0,0,0,0,-4.2581,-4.2598,-4.2629,-4.2659,-4.2674,-4.2768,-4.272,-4.2721,-4.2746,-4.2742,-4.2772,-4.2774,-4.2774,-4.2843,-4.2855,-4.2895,-4.2824,-4.302,-4.3025,-4.303,-4.3076,-4.3087,-4.3096,0,0,0,0,0,-4.2575,-4.264,-4.2631,-4.2645,-4.2714,-4.277,-4.2779,-4.2778,-4.275,-4.2781,-4.2793,-4.2774,-4.2884,-4.285,-4.2864,-4.2905,-4.3017,-4.3024,-4.303,-4.3072,-4.3085,-4.3096,0,0,0,0,0,0,-4.2614,-4.2644,-4.2634,-4.271,-4.2738,-4.2765,-4.2804,-4.2792,-4.2827,-4.2821,-4.2818,-4.2825,-4.2893,-4.2906,-4.2868,-4.2986,-4.2946,-4.2956,-4.2974,-4.2986,-4.2996,-4.299,-4.2828,0,0,0,0,0,-4.2632,-4.2676,-4.27,-4.2765,-4.278,-4.279,-4.2814,-4.2811,-4.2839,-4.2851,-4.2867,-4.2894,-4.2935,-4.2962,-4.3001,-4.308,-4.3085,-4.3115,-4.3125,-4.3133,-4.314,-4.3181,-4.3194,-4.3054,-4.3054,-4.3054,0,0,-4.2668,-4.269,-4.2718,-4.2773,-4.2794,-4.2839,-4.28,-4.2849,-4.2882,-4.2858,-4.292,-4.2934,-4.2964,-4.3036,-4.3069,-4.3049,-4.318,-4.3141,-4.3147,-4.315,-4.3189,-4.3202,-4.3214,-4.3058,-4.3057,-4.3057,0,0,-4.2756,-4.2779,-4.2835,-4.2857,-4.289,-4.2897,-4.2911,-4.2939,-4.2947,-4.3011,-4.2993,-4.3033,-4.3103,-4.3125,-4.3146,-4.3245,-4.3228,-4.3258,-4.3307,-4.3348,-4.3359,-4.3368,-4.3401,-4.3414,-4.3265,-4.3265,-4.3265,0,-4.2797,-4.2865,-4.2865,-4.2916,-4.294,-4.2922,-4.2978,-4.3,-4.3043,-4.306,-4.3039,-4.3127,-4.3146,-4.3223,-4.3247,-4.3265,-4.3279,-4.3252,-4.3357,-4.3367,-4.3376,-4.3408,-4.342,-4.3269,-4.3268,-4.3268,-4.3268,0,-4.2912,-4.2959,-4.3001,-4.3044,-4.3073,-4.3127,-4.3134,-4.3164,-4.3159,-4.3167,-4.3232,-4.3255,-4.3297,-4.3316,-4.3311,-4.3392,-4.3378,-4.3358,-4.3317,-4.3393,-4.3422,-4.3434,-4.3273,-4.3272,-4.3271,-4.327,0,0,-4.3024,-4.3068,-4.3083,-4.3102,-4.3138,-4.3174,-4.3227,-4.3269,-4.3294,-4.3326,-4.3368,-4.3429,-4.341,-4.3434,-4.3432,-4.3468,-4.3542,-4.3442,-4.3443,-4.3457,-4.363,-4.3643,-4.3657,-4.3533,-4.3535,-4.3537,-4.3627,0,-4.3113,-4.3205,-4.3207,-4.3291,-4.3334,-4.3319,-4.3364,-4.3391,-4.3401,-4.3438,-4.3449,-4.3492,-4.3465,-4.3478,-4.3514,-4.3525,-4.3576,-4.352,-4.357,-4.3572,-4.356,-4.3673,-4.3688,-4.3771,-4.3638,-4.364,-4.3642,0,-4.3229,-4.3264,-4.3353,-4.3382,-4.34,-4.3441,-4.348,-4.3517,-4.3547,-4.3552,-4.3579,-4.3571,-4.3624,-4.3585,-4.3657,-4.3618,-4.364,-4.3649,-4.3652,-4.3654,-4.3609,-4.3676,-4.3798,-4.3809,-4.366,-4.3659,-4.3657,0,-4.3298,-4.3369,-4.3431,-4.3448,-4.3485,-4.3513,-4.353,-4.3557,-4.3583,-4.3617,-4.3633,-4.3674,-4.3695,-4.3726,-4.3729,-4.3701,-4.3801,-4.3762,-4.3805,-4.3804,-4.3824,-4.3822,-4.3948,-4.3843,-4.3842,-4.3842,-4.3842,0,-4.3396,-4.345,-4.3462,-4.35,-4.356,-4.3562,-4.3621,-4.3635,-4.366,-4.37,-4.369,-4.3727,-4.3731,-4.3769,-4.3773,-4.383,-4.3841,-4.3845,-4.3844,-4.3844,-4.3843,-4.3855,-4.3849,-4.3845,-4.3845,-4.3844,-4.3844,0,-4.3483,-4.3494,-4.3559,-4.3589,-4.3598,-4.3641,-4.3666,-4.3701,-4.3711,-4.3761,-4.3773,-4.3788,-4.3833,-4.384,-4.3893,-4.3895,-4.3963,-4.3958,-4.3953,-4.3951,-4.3992,-4.3987,-4.4128,-4.4146,-4.4032,-4.4033,-4.4034,0,-4.3543,-4.3584,-4.3619,-4.3645,-4.3663,-4.3705,-4.3731,-4.3736,-4.3763,-4.3801,-4.3831,-4.3875,-4.391,-4.3982,-4.3997,-4.4036,-4.4031,-4.4078,-4.4036,-4.4034,-4.4028,-4.4025,-4.4028,-4.4084,-4.4086,-4.4087,-4.4087,0,-4.3648,-4.3651,-4.369,-4.373,-4.3762,-4.3794,-4.3824,-4.3846,-4.3854,-4.3886,-4.3932,-4.3959,-4.4013,-4.4055,-4.4095,-4.4111,-4.41,-4.4101,-4.4112,-4.4111,-4.4105,-4.4106,-4.3971,-4.4097,-4.4096,-4.4095,-4.4095,-4.4094,-4.3722,-4.3757,-4.3787,-4.383,-4.3853,-4.3882,-4.3917,-4.3931,-4.397,-4.4014,-4.4015,-4.4064,-4.4093,-4.4145,-4.4165,-4.4203,-4.4187,-4.4205,-4.4208,-4.4212,-4.4215,-4.4102,-4.421,-4.421,-4.421,-4.421,-4.421,0,-4.3824,-4.3843,-4.3882,-4.3925,-4.3959,-4.3948,-4.3981,-4.4009,-4.4053,-4.4082,-4.4117,-4.4169,-4.421,-4.423,-4.4271,-4.4298,-4.4293,-4.4308,-4.4304,-4.4308,-4.4227,-4.4212,-4.431,-4.431,-4.431,-4.431,-4.431,-4.431,-4.3881,-4.394,-4.3947,-4.4017,-4.4036,-4.4084,-4.4104,-4.413,-4.4153,-4.4211,-4.4246,-4.4259,-4.4283,-4.4326,-4.4364,-4.4368,-4.4383,-4.4399,-4.4401,-4.4324,-4.4314,-4.4304,-4.4289,-4.4403,-4.4403,-4.4478,-4.4479,-4.4479]},{"header":{"parameterUnit":"m.s-1","parameterCategory":1,"la1":30.2991,"la2":30.254,"lo1":-89.0895,"lo2":-89.0444,"dy":0.0017,"dx":0.0017,"nx":28,"ny":28,"refTime":"2023-09-05T03:00:00:Z","depth":0,"parameterNumber":3,"parameterNumberName":"V-component_of_WINDS"},"data":[0,0,0,0,0,0,0,0,0,0,0,0,0,0,0,0,0,0,0,0,0,0,0,0,0,0,0,0,0,0,0,0,0,0,0,0,0,0,0,0,0,0,0,0,0,0,0,0,0,0,0,0,0,0,0,0,0,0,3.6303,3.6304,0,3.6318,3.6318,3.6318,3.627,3.6269,3.6268,3.6266,3.6278,3.628,3.6282,0,0,0,0,0,0,0,0,0,0,0,0,0,3.6234,3.6236,3.6303,3.6304,3.6304,3.6318,3.6318,3.6318,3.6271,3.6269,3.6267,3.6266,3.6278,3.628,3.6282,0,0,0,0,0,0,0,0,0,0,0,0,0,3.6258,3.6236,3.6303,3.6282,3.628,3.6317,3.6318,3.6318,3.6271,3.6269,3.6267,3.6265,3.6277,3.628,3.6282,3.634,0,0,3.629,3.6291,0,0,0,0,0,0,0,0,3.6257,3.626,3.6285,3.6284,3.6282,3.629,3.6298,3.6325,3.6272,3.6274,3.6266,3.6264,3.6284,3.6286,3.6293,3.6341,3.6341,3.629,3.6291,3.6292,3.6293,0,0,0,0,0,0,0,3.6255,3.626,3.6309,3.6285,3.6283,3.6271,3.6272,3.6303,3.6291,3.6274,3.6271,3.6273,3.6283,3.6291,3.6293,3.6341,3.629,3.6292,3.6294,3.6295,3.6437,3.6439,0,0,0,0,0,0,3.6256,3.6259,3.6308,3.6309,3.6264,3.6274,3.6275,3.6289,3.629,3.6289,3.6275,3.6271,3.6288,3.629,3.6293,3.636,3.6292,3.6295,3.6296,3.6435,3.6437,3.644,0,0,0,0,0,0,3.6255,3.6261,3.6308,3.6283,3.6288,3.6278,3.6294,3.6291,3.6299,3.6291,3.6289,3.6285,3.6286,3.629,3.6329,3.636,3.6296,3.6298,3.6432,3.6435,3.6439,3.6495,0,0,0,0,0,0,3.6253,3.6261,3.6283,3.6284,3.629,3.6344,3.6296,3.6293,3.6304,3.6298,3.63,3.6299,3.6285,3.6325,3.6331,3.6362,3.63,3.6429,3.6433,3.6438,3.649,3.65,3.6508,0,0,0,0,0,3.6251,3.6298,3.6285,3.6291,3.6317,3.6346,3.6349,3.6332,3.6306,3.6328,3.6323,3.6298,3.6356,3.633,3.6336,3.6368,3.6427,3.6432,3.6437,3.6486,3.6498,3.6508,0,0,0,0,0,0,3.63,3.6298,3.6283,3.6331,3.6339,3.6338,3.6364,3.6345,3.636,3.6354,3.6333,3.6334,3.6377,3.6377,3.6347,3.6424,3.6387,3.6394,3.6422,3.6433,3.6442,3.644,3.6302,0,0,0,0,0,3.6317,3.6341,3.6337,3.638,3.6385,3.6375,3.6386,3.6373,3.638,3.6383,3.6381,3.6388,3.6408,3.6421,3.6438,3.6491,3.649,3.6516,3.6525,3.6533,3.6538,3.6565,3.6576,3.6457,3.6457,3.6457,0,0,3.635,3.6352,3.6368,3.639,3.6395,3.6419,3.6377,3.6405,3.6423,3.6387,3.6423,3.6423,3.6429,3.6475,3.6495,3.6476,3.6571,3.6539,3.6545,3.6546,3.6571,3.6582,3.6592,3.646,3.646,3.6459,0,0,3.6424,3.6429,3.6465,3.6471,3.6479,3.6472,3.6481,3.6483,3.6481,3.6518,3.6491,3.6512,3.6547,3.6552,3.656,3.6639,3.6616,3.6645,3.6691,3.6717,3.6727,3.6735,3.6761,3.6771,3.6651,3.6651,3.6651,0,3.6465,3.6502,3.6486,3.6516,3.6526,3.6496,3.6532,3.6539,3.6552,3.6559,3.6539,3.6582,3.6584,3.663,3.665,3.6658,3.6666,3.6643,3.6727,3.6735,3.6742,3.6767,3.6777,3.6655,3.6654,3.6654,3.6654,0,3.6551,3.6577,3.6605,3.662,3.6633,3.6666,3.6655,3.6671,3.6658,3.6653,3.669,3.6693,3.671,3.6721,3.6708,3.6766,3.6754,3.6731,3.6692,3.6757,3.678,3.679,3.6659,3.6658,3.6657,3.6656,0,0,3.6652,3.666,3.667,3.6676,3.6684,3.6703,3.6736,3.6754,3.6767,3.6778,3.6803,3.6834,3.6813,3.6822,3.6809,3.6833,3.6894,3.6807,3.6807,3.6821,3.6956,3.6971,3.6983,3.688,3.6882,3.6883,3.6955,0,3.6724,3.6779,3.6766,3.682,3.6844,3.6817,3.6845,3.6852,3.6849,3.6868,3.6865,3.6886,3.6858,3.6863,3.6885,3.6881,3.692,3.6877,3.6902,3.6903,3.6898,3.6995,3.7011,3.7079,3.6964,3.6965,3.6967,0,3.6813,3.6829,3.6885,3.689,3.6899,3.6924,3.694,3.6959,3.6967,3.6964,3.6974,3.6958,3.6989,3.6953,3.6995,3.6966,3.6976,3.6976,3.6978,3.6977,3.6936,3.6995,3.71,3.7109,3.6981,3.698,3.6979,0,3.688,3.6915,3.6953,3.696,3.6966,3.6984,3.6988,3.6994,3.7006,3.702,3.7027,3.7045,3.7054,3.7068,3.7056,3.7032,3.71,3.7063,3.7096,3.7096,3.7109,3.7107,3.7214,3.712,3.712,3.7119,3.7119,0,3.6959,3.6994,3.6983,3.7006,3.7045,3.7031,3.7069,3.707,3.7076,3.7098,3.7077,3.7098,3.7083,3.7103,3.7094,3.7129,3.7134,3.7131,3.7128,3.7131,3.7132,3.7136,3.713,3.7122,3.7122,3.7121,3.7121,0,3.7038,3.7033,3.7072,3.7076,3.7078,3.7106,3.7109,3.713,3.7127,3.7155,3.7161,3.7155,3.7178,3.7168,3.7192,3.7186,3.7231,3.7223,3.7228,3.7225,3.7258,3.7254,3.7368,3.7382,3.7281,3.7282,3.7283,0,3.7088,3.7115,3.7122,3.7136,3.7141,3.7164,3.7177,3.7165,3.7178,3.7191,3.721,3.7231,3.7247,3.7284,3.7281,3.7299,3.729,3.7329,3.7292,3.7295,3.7288,3.7286,3.7288,3.7335,3.7337,3.7338,3.7338,0,3.7177,3.7173,3.7192,3.7211,3.7227,3.724,3.7252,3.7265,3.7253,3.727,3.7293,3.7306,3.7331,3.7351,3.7367,3.737,3.7352,3.7351,3.7359,3.7361,3.7362,3.736,3.7245,3.7347,3.7346,3.7346,3.7345,3.7345,3.7241,3.7263,3.7272,3.7294,3.7303,3.7315,3.7335,3.7335,3.7354,3.7374,3.7366,3.7392,3.74,3.7421,3.7426,3.7446,3.7431,3.7443,3.7446,3.7448,3.7452,3.7362,3.745,3.7449,3.7449,3.7449,3.7449,0,3.7327,3.7332,3.7353,3.737,3.7388,3.7372,3.7385,3.74,3.7424,3.7433,3.745,3.7477,3.7497,3.7497,3.7516,3.7532,3.7524,3.7537,3.7534,3.7535,3.7465,3.7455,3.7543,3.7543,3.7543,3.7543,3.7543,3.7543,3.7373,3.741,3.7407,3.7448,3.7452,3.7479,3.7487,3.7498,3.7506,3.7537,3.7554,3.7554,3.756,3.7579,3.7597,3.7596,3.7603,3.7619,3.7615,3.7549,3.754,3.7531,3.7521,3.7621,3.7621,3.7682,3.7683,3.7683]}]]